SCP
0 0 -0 -0 -0 -0 -0 -0 -0 -0 -0 -0 -0 -0 -0 -0 -0 -0 -0 -0 -0 -0 -0 -0 -0 -0 -0 0 0 0 -0 -0 -0 -0 -0 0 0 0 0 0 0 0 0 0 0 0 0
0 0 -0 -0 -0 -0 -0 -0 -0 -0 -0 -0 -0 -0 -0 -0 -0 -0 -0 -0 -0 -0 -0 -0 -0 -0 0 0 -0 -0 -0 -0 -0 -0 0 0 0 0 0 0 0 0 0 0 0 0 0
0 0 -0 -0 -0 -0 -0 -0 -0 -0 -0 -0 -0 -0 -0 -0 -0 -0 -0 -0 -0 -0 -0 -0 0 -0 0 0 0 -0 -0 -0 -0 -0 0 0 0 0 0 0 0 0 0 0 0 0 0
-0 -0 -0 -0 -0 -0 -0 -0 -0 -0 -0 -0 -0 -0 -0 -0 -0 -0 -0 -0 0 -0 0 0 0 0 0 0 0 0 0 0 0 0 0 0 0 0 0 0 0 0 0 0 0 0 0
0 -0 -0 -0 -0 -0 -0 -0 -0 -0 -0 -0 -0 -0 -0 -0 -0 -0 -0 -0 0 0 0 0 0 0 0 0 0 0 0 0 0 0 0 0 0 0 0 0 0 0 0 0 0 0 0
0 -0 -0 -0 -0 -0 -0 -0 -0 -0 -0 -0 -0 -0 -0 -0 -0 -0 -0 -0 0 0 0 0 0 0 0 0 0 0 0 0 0 0 0 0 0 0 0 0 0 0 0 0 0 0 0
0 0 -0 -0 -0 -0 -0 -0 -0 -0 -0 -0 -0 -0 -0 -0 -0 -0 -0 0 -0 0 0 0 0 0 0 0 0 0 0 0 0 0 0 0 0 0 0 0 0 0 0 0 0 0 0
0 0 -0 -0 -0 -0 -0 -0 -0 -0 -0 -0 -0 -0 -0 -0 -0 -0 -0 0 0 0 0 0 0 0 0 0 0 0 0 0 0 0 0 0 0 0 0 0 0 0 0 0 0 0 0
0 -0 -0 -0 -0 -0 -0 -0 -0 -0 -0 -0 -0 -0 -0 -0 -0 0 0 0 0 0 0 0 0 0 0 0 0 0 0 0 0 0 0 0 0 0 0 0 0 0 0 0 0 0 0
0 -0 -0 -0 -0 -0 -0 -0 -0 -0 -0 -0 -0 -0 -0 0 0 0 0 0 -0 -0 0 0 0 0 0 0 0 0 0 0 0 0 0 0 0 0 0 0 0 0 0 0 0 0 0
0 0 -0 -0 -0 -0 -0 -0 -0 -0 -0 -0 -0 -0 -0 0 0 0 0 -0 -0 0 0 0 0 0 0 0 0 0 0 0 0 0 0 0 0 0 0 0 0 0 0 0 0 0 0
-0 0 -0 -0 -0 -0 -0 -0 -0 -0 -0 -0 -0 -0 0 0 0 0 -0 -0 0 0 0 0 0 0 0 0 0 0 0 0 0 0 0 0 0 0 0 0 0 0 0 0 0 0 0
-0 -0 -0 -0 -0 -0 -0 -0 -0 -0 -0 -0 -0 -0 -0 -0 0 -0 0 0 0 0 0 0 0 0 0 0 0 0 0 0 0 0 0 0 0 0 0 0 0 0 0 0 0 0 0
0 0 0 -0 -0 -0 -0 -0 -0 -0 -0 -0 -0 -0 0 0 -0 -0 0 0 0 0 0 0 0 0 0 0 0 0 0 0 0 0 0 0 0 0 0 0 0 0 0 0 0 0 0
0 0 0 0 0 0 0 0 -0 -0 -0 -0 0 0 0 0 0 0 0 0 0 0 0 0 0 0 0 0 0 0 0 0 0 0 0 0 0 0 0 0 0 0 0 0 0 0 0
0 0 0 0 0 0 0 0 -0 -0 -0 0 0 0 0 0 0 0 0 0 0 0 0 0 0 0 0 0 0 0 0 0 0 0 0 0 0 0 0 0 0 0 0 0 0 0 0
0 0 0 0 0 0 0 0 0 0 0 -0 -0 0 0 0 0 0 0 0 0 0 0 0 0 0 0 0 0 0 0 0 0 0 0 0 0 0 0 0 0 0 0 0 0 0 0
0 0 0 0 0 0 -0 -0 0 0 0 -0 -0 0 0 0 0 0 0 0 0 0 0 0 0 0 0 0 0 0 0 0 0 0 0 0 0 0 0 0 0 0 0 0 0 0 0
0 0 0 0 0 0 0 0 0 0 -0 -0 -0 0 0 0 0 0 0 0 0 0 0 0 0 0 0 0 0 0 0 0 0 0 0 0 0 0 0 0 0 -0 0 0 0 0 0
0 0 0 0 0 0 0 0 0 0 0 -0 -0 0 0 0 0 0 0 0 0 0 0 0 0 0 0 0 0 0 0 0 0 0 0 0 0 0 0 0 0 0 0 0 0 0 0
0 0 0 0 0 0 0 0 0 0 0 -0 0 0 0 0 0 0 0 0 0 0 0 0 0 0 0 0 0 0 0 0 0 0 0 0 0 0 0 0 0 0 0 0 0 0 0
0 0 0 0 0 0 0 0 0 0 0 0 0 0 0 0 0 0 0 0 0 0 0 0 0 0 0 0 0 0 0 0 0 0 0 0 0 0 0 0 0 0 0 0 0 0 0
0 0 0 0 0 0 0 0 0 0 0 0 0 0 0 0 0 0 0 0 0 0 0 0 0 0 0 0 0 0 0 0 0 0 0 0 0 0 0 0 0 0 0 0 0 0 0
0 0 0 0 0 0 0 0 0 0 0 0 0 0 0 0 0 0 0 0 0 0 0 0 0 0 0 0 0 0 0 0 0 0 0 0 0 0 0 0 0 0 0 0 0 0 0
0 0 0 0 0 0 0 0 0 0 0 0 0 0 0 0 0 0 0 0 0 0 0 0 0 0 0 0 0 0 0 0 0 0 0 0 0 0 0 0 0 0 0 0 0 0 0
0 0 0 0 0 0 0 0 0 0 0 0 0 0 0 0 0 0 0 0 0 0 0 0 0 0 0 0 0 0 0 0 0 0 0 0 0 0 0 0 0 0 0 0 0 0 0
0 0 0 0 0 0 0 0 0 0 0 0 0 0 0 0 0 0 0 0 0 0 0 0 0 0 0 0 0 0 0 0 0 0 0 0 0 0 0 0 0 0 0 0 0 0 0
0 0 0 0 0 0 0 0 0 0 0 0 0 0 0 0 0 0 0 0 0 0 0 0 0 0 0 0 0 0 0 0 0 0 0 0 0 0 0 0 0 0 0 0 0 0 0
0 0 0 -0 0 0 0 0 0 0 0 0 0 0 0 0 0 0 0 0 0 0 0 0 0 0 0 0 0 0 0 0 0 0 0 0 0 0 0 0 0 0 0 0 0 0 0
Wind_Speed_500mb
56 57 58 57 56 55 55 54 52 50 47 43 41 38 32 28 26 26 19 15 13 10 8 8 10 7 3 7 6 19 23 28 23 29 27 23 24 17 19 15 17 22 11 14 16 15 17
55 57 58 58 58 57 55 56 55 53 50 45 42 39 34 28 25 25 23 19 11 8 7 7 8 7 4 13 15 22 23 28 28 30 26 20 12 11 11 12 22 12 10 14 16 23 15
55 56 58 59 60 57 57 56 56 55 53 49 42 38 35 30 23 22 20 15 6 4 5 6 6 7 12 12 16 22 24 25 28 28 24 16 10 15 11 14 11 12 20 22 26 28 20
55 57 57 59 60 58 57 57 58 58 56 52 46 39 35 30 22 17 14 12 7 5 6 6 7 5 10 14 20 21 28 25 26 25 14 17 6 10 14 3 14 20 14 23 25 26 20
56 58 59 62 60 58 58 59 60 59 57 54 50 41 36 30 21 13 11 9 5 7 8 8 6 4 4 6 14 25 26 24 25 22 18 12 9 14 14 22 21 21 23 19 16 21 13
57 59 61 62 59 59 59 60 64 61 58 56 51 43 34 28 19 9 8 9 12 9 3 4 9 8 10 3 10 17 29 26 26 26 19 19 18 20 20 19 22 12 23 16 22 24 19
58 60 62 59 59 61 62 62 67 66 63 56 52 44 33 26 14 6 7 8 6 2 8 18 16 19 4 11 2 10 29 28 26 34 31 31 22 26 25 15 12 17 15 17 15 16 19
57 59 58 58 59 62 65 66 69 71 70 62 55 45 33 22 8 9 11 7 8 9 17 21 23 25 30 17 14 22 34 32 29 33 35 17 31 28 12 17 19 19 23 24 20 17 23
56 53 54 58 61 63 65 66 67 70 71 64 57 45 32 16 12 12 14 10 8 11 14 4 3 2 2 25 29 28 40 43 31 33 31 35 6 12 23 23 24 25 24 18 21 19 29
52 50 52 56 63 64 66 67 67 69 71 69 57 44 32 11 11 9 3 15 13 5 9 8 5 4 4 5 12 29 37 33 27 32 35 26 30 23 19 22 23 27 25 22 16 24 27
49 50 52 57 62 64 66 67 67 67 68 68 53 40 28 27 12 12 18 14 10 2 7 7 9 2 3 7 9 6 33 31 33 31 15 29 28 26 29 28 32 29 10 23 21 24 30
49 50 53 58 61 64 64 66 68 68 65 65 50 31 26 22 19 26 24 7 2 11 4 7 6 9 2 2 3 5 18 30 19 36 25 36 8 19 24 15 19 13 17 22 22 25 28
50 51 54 57 59 62 64 67 71 72 67 59 51 29 30 27 24 22 22 1 10 8 4 6 6 12 4 6 4 3 10 21 22 26 36 37 39 32 20 29 23 23 27 23 28 28 30
49 52 55 57 57 60 65 70 72 72 70 59 48 33 22 23 25 23 15 10 11 5 3 3 7 11 9 11 6 2 12 17 12 13 22 27 27 35 34 34 36 38 39 30 40 30 31
52 54 55 56 56 58 64 70 73 73 71 67 50 36 9 22 21 19 14 10 7 3 6 8 15 16 8 6 9 4 1 2 7 17 5 15 25 14 15 16 20 38 26 29 37 39 20
53 54 54 54 56 60 64 70 74 73 71 68 55 30 6 24 19 12 9 5 5 2 7 7 13 2 14 3 15 8 11 4 9 12 16 11 16 12 32 20 6 20 10 17 22 40 39
54 54 55 54 55 60 64 69 74 76 75 65 40 16 10 27 16 10 9 3 5 4 5 8 8 11 13 16 14 12 4 10 3 9 9 7 12 17 22 15 19 24 15 11 15 14 16
53 53 53 54 56 59 65 68 72 76 76 67 25 11 25 24 11 3 5 5 8 8 9 10 11 15 15 5 10 8 8 4 4 3 2 7 8 17 29 36 26 33 38 27 14 18 17
53 52 52 53 55 58 63 66 67 66 64 60 31 16 16 20 7 2 5 7 7 9 8 6 11 10 7 9 10 11 7 6 6 2 3 11 13 15 13 9 12 17 25 26 17 9 40
52 51 50 51 54 58 62 64 63 57 51 41 14 8 7 15 11 10 12 11 12 6 13 12 10 10 12 15 10 7 12 12 2 6 6 4 17 22 24 17 2 8 13 15 21 15 27
51 49 49 50 54 57 60 61 57 51 43 25 10 6 5 9 1 19 12 9 18 12 8 8 13 23 19 15 16 16 12 12 13 7 7 8 17 19 24 27 27 30 29 26 31 30 30
48 48 47 49 53 56 57 55 50 45 38 13 14 12 9 26 17 15 7 10 12 7 9 10 19 4 15 22 18 8 13 11 10 9 10 7 14 15 27 23 24 34 34 34 36 35 35
47 45 46 49 51 52 50 46 43 40 32 11 13 11 9 11 11 12 9 5 4 9 13 5 7 14 18 8 7 11 14 10 10 14 15 15 12 12 19 6 18 23 26 33 35 32 23
44 44 46 47 47 45 41 40 37 33 26 15 11 9 13 15 9 15 11 15 20 22 22 18 18 18 6 12 14 16 20 23 23 23 21 17 17 17 11 12 10 10 5 5 10 7 16
43 45 46 44 42 39 36 34 31 28 20 12 11 7 10 14 17 25 23 19 19 20 27 30 25 14 16 13 16 17 21 21 29 24 21 26 18 7 7 16 24 19 8 5 7 8 4
45 43 42 39 35 34 32 31 27 25 20 12 13 9 10 17 3 11 17 15 21 21 18 25 16 15 13 18 19 28 19 18 13 17 9 17 20 14 10 8 9 8 9 3 6 15 12
41 36 34 30 31 32 28 26 25 20 18 16 14 13 10 24 27 15 17 14 7 13 14 16 13 15 18 19 22 24 25 14 20 23 16 18 20 23 21 14 13 12 7 2 15 5 5
35 27 28 32 30 27 25 24 21 13 15 17 15 16 12 20 42 42 39 40 36 26 18 4 12 22 16 23 21 15 16 15 22 20 12 20 13 15 18 13 13 11 12 12 12 14 22
29 22 30 35 27 23 23 24 20 18 24 21 16 11 16 21 35 39 43 49 44 36 28 19 20 10 10 9 8 9 10 8 19 15 11 15 11 6 9 4 11 10 5 7 16 20 26
Wind_Direction_500mb
31 30 29 26 24 22 20 17 15 13 10 8 9 7 0 352 347 341 332 321 292 272 271 236 222 229 260 240 200 177 171 173 160 161 169 174 181 193 198 191 194 233 220 233 238 251 267
29 28 25 22 21 20 18 16 14 12 8 4 3 3 359 353 347 343 337 325 296 269 271 245 225 234 256 247 206 177 172 172 176 171 176 179 193 212 179 196 229 169 225 239 241 236 230
25 21 19 18 17 16 15 15 13 11 9 5 360 358 356 351 347 347 349 349 332 277 268 245 235 249 257 267 195 186 176 175 184 182 185 186 181 205 172 186 216 218 245 219 227 228 230
19 17 16 14 13 15 14 12 11 10 8 6 2 355 351 349 344 346 355 0 2 333 291 269 247 269 265 247 204 186 180 187 186 190 190 187 198 224 234 192 206 237 238 247 204 205 205
15 15 13 10 11 12 12 11 9 8 7 3 5 358 351 347 341 343 353 3 9 320 291 270 264 227 257 249 216 207 192 189 183 187 185 181 205 239 200 230 229 210 250 216 162 208 179
12 12 9 8 12 12 12 12 9 7 6 2 2 0 353 347 344 351 4 352 334 326 299 301 247 236 214 166 161 187 193 191 180 179 183 207 220 228 224 232 253 237 233 221 231 175 211
9 9 8 11 14 12 11 13 10 9 7 2 1 0 356 351 355 41 36 18 334 210 260 266 296 267 271 155 205 180 181 176 195 192 207 205 229 228 236 231 315 268 262 249 225 169 229
9 9 12 12 10 9 10 13 11 10 8 3 2 1 359 1 47 74 64 77 62 304 296 289 274 261 251 230 233 185 178 188 194 207 213 192 231 252 255 231 240 235 236 241 237 200 222
7 8 10 10 8 9 11 14 13 11 10 4 3 6 4 21 89 105 82 55 356 323 269 313 299 354 20 211 231 207 189 203 206 217 202 233 222 12 230 216 230 226 244 237 260 180 216
6 7 6 7 8 10 11 14 13 11 11 6 7 12 15 49 50 66 21 334 329 321 265 94 128 81 2 199 208 221 204 202 220 233 227 239 249 224 228 240 227 244 212 243 238 216 210
8 8 7 6 7 9 10 10 11 10 12 9 11 18 23 44 47 15 318 306 308 230 265 74 86 44 320 262 332 145 202 210 239 219 243 222 231 228 234 244 233 246 224 236 234 235 249
7 6 5 6 7 7 8 8 8 7 8 10 8 13 14 15 10 356 349 300 194 233 165 134 69 358 160 39 59 111 199 222 257 252 225 263 278 267 251 266 240 220 221 234 244 246 231
1 1 1 4 7 5 5 5 5 4 2 4 5 358 1 1 350 346 351 279 242 255 119 84 358 341 342 26 57 301 187 196 240 231 235 233 242 229 233 247 206 229 235 236 225 226 237
356 356 358 1 3 4 1 0 0 359 357 357 357 348 345 355 347 349 341 249 252 57 25 33 326 301 303 347 91 123 174 164 61 289 272 267 241 231 204 239 253 223 230 242 249 243 242
351 352 354 357 358 359 358 356 356 357 357 353 350 347 318 351 344 343 303 251 346 351 359 327 301 279 205 200 296 209 153 127 49 23 280 325 248 58 29 303 258 242 242 261 272 269 256
347 347 350 353 354 354 356 354 353 355 357 353 351 346 270 345 338 330 263 303 273 311 313 262 274 236 272 257 280 256 193 118 135 91 36 49 284 28 2 287 230 272 346 223 228 252 250
344 344 345 349 350 350 352 353 351 351 353 355 358 333 271 338 339 249 272 351 280 249 292 263 276 262 271 290 282 281 344 105 271 275 301 124 137 255 331 341 9 324 258 265 297 261 270
339 341 342 344 346 348 350 351 351 350 351 359 359 319 312 347 271 285 276 352 347 272 233 252 272 271 267 266 264 254 251 357 27 307 2 186 202 242 250 243 288 303 295 306 289 250 265
336 338 339 341 343 345 346 348 351 352 355 356 335 298 326 5 312 299 338 273 262 267 251 245 239 242 225 237 251 244 203 125 81 35 168 156 210 268 181 197 206 222 235 254 267 309 277
333 334 336 337 339 340 342 344 347 351 354 355 335 307 342 36 55 342 335 280 261 235 261 262 267 232 223 232 214 233 215 176 238 134 94 172 251 263 279 310 24 243 215 205 215 240 253
329 330 331 333 335 336 338 340 343 349 355 4 348 36 337 311 165 326 283 285 276 268 235 253 223 236 232 238 229 223 211 189 199 161 206 243 254 262 272 285 280 269 269 253 237 253 263
325 327 328 330 331 332 333 336 342 348 355 9 341 334 311 285 290 277 211 245 275 286 263 218 259 251 240 242 238 214 212 217 257 160 210 203 265 286 274 267 271 271 266 261 257 256 258
322 324 326 327 328 330 332 336 341 346 358 6 341 315 297 279 271 268 274 294 271 304 230 248 328 277 238 248 290 289 273 277 267 249 221 235 261 259 275 346 291 268 258 247 252 250 257
319 321 323 324 325 326 330 333 338 345 354 360 329 320 283 284 269 292 288 276 275 273 270 269 292 270 15 318 276 254 251 248 239 238 242 241 245 257 276 290 256 59 38 304 285 285 239
316 317 318 320 322 324 327 329 334 337 344 345 322 315 293 284 303 285 271 275 274 256 253 261 261 263 304 277 250 242 235 241 239 235 219 227 234 209 233 235 273 286 151 279 272 141 16
312 315 315 319 321 322 322 323 327 328 334 342 305 281 279 298 18 333 287 287 288 280 269 250 246 263 255 254 232 241 238 222 177 174 203 195 231 221 198 246 252 60 106 46 292 256 94
309 313 315 315 317 317 319 319 319 322 325 337 295 295 277 278 279 288 270 309 288 280 280 281 272 252 224 234 236 234 239 220 241 213 179 188 205 216 211 233 255 101 137 286 247 44 360
307 312 317 315 313 308 317 320 319 311 292 324 293 298 268 272 280 278 271 269 268 255 260 354 269 206 233 234 240 243 248 223 242 246 226 224 217 219 235 235 242 144 144 247 16 319 321
304 298 317 344 324 303 306 315 322 288 286 296 276 270 274 268 264 281 272 263 254 251 275 268 285 312 319 254 234 235 215 214 239 242 195 243 245 242 222 34 95 115 331 311 304 302 307
Wind_Speed_850mb
56 57 58 57 56 55 55 54 52 50 47 43 41 38 32 28 26 26 19 15 13 10 8 8 10 7 3 7 6 19 23 28 23 29 27 23 24 17 19 15 17 22 11 14 16 15 17
55 57 58 58 58 57 55 56 55 53 50 45 42 39 34 28 25 25 23 19 11 8 7 7 8 7 4 13 15 22 23 28 28 30 26 20 12 11 11 12 22 12 10 14 16 23 15
55 56 58 59 60 57 57 56 56 55 53 49 42 38 35 30 23 22 20 15 6 4 5 6 6 7 12 12 16 22 24 25 28 28 24 16 10 15 11 14 11 12 20 22 26 28 20
55 57 57 59 60 58 57 57 58 58 56 52 46 39 35 30 22 17 14 12 7 5 6 6 7 5 10 14 20 21 28 25 26 25 14 17 6 10 14 3 14 20 14 23 25 26 20
56 58 59 62 60 58 58 59 60 59 57 54 50 41 36 30 21 13 11 9 5 7 8 8 6 4 4 6 14 25 26 24 25 22 18 12 9 14 14 22 21 21 23 19 16 21 13
57 59 61 62 59 59 59 60 64 61 58 56 51 43 34 28 19 9 8 9 12 9 3 4 9 8 10 3 10 17 29 26 26 26 19 19 18 20 20 19 22 12 23 16 22 24 19
58 60 62 59 59 61 62 62 67 66 63 56 52 44 33 26 14 6 7 8 6 2 8 18 16 19 4 11 2 10 29 28 26 34 31 31 22 26 25 15 12 17 15 17 15 16 19
57 59 58 58 59 62 65 66 69 71 70 62 55 45 33 22 8 9 11 7 8 9 17 21 23 25 30 17 14 22 34 32 29 33 35 17 31 28 12 17 19 19 23 24 20 17 23
56 53 54 58 61 63 65 66 67 70 71 64 57 45 32 16 12 12 14 10 8 11 14 4 3 2 2 25 29 28 40 43 31 33 31 35 6 12 23 23 24 25 24 18 21 19 29
52 50 52 56 63 64 66 67 67 69 71 69 57 44 32 11 11 9 3 15 13 5 9 8 5 4 4 5 12 29 37 33 27 32 35 26 30 23 19 22 23 27 25 22 16 24 27
49 50 52 57 62 64 66 67 67 67 68 68 53 40 28 27 12 12 18 14 10 2 7 7 9 2 3 7 9 6 33 31 33 31 15 29 28 26 29 28 32 29 10 23 21 24 30
49 50 53 58 61 64 64 66 68 68 65 65 50 31 26 22 19 26 24 7 2 11 4 7 6 9 2 2 3 5 18 30 19 36 25 36 8 19 24 15 19 13 17 22 22 25 28
50 51 54 57 59 62 64 67 71 72 67 59 51 29 30 27 24 22 22 1 10 8 4 6 6 12 4 6 4 3 10 21 22 26 36 37 39 32 20 29 23 23 27 23 28 28 30
49 52 55 57 57 60 65 70 72 72 70 59 48 33 22 23 25 23 15 10 11 5 3 3 7 11 9 11 6 2 12 17 12 13 22 27 27 35 34 34 36 38 39 30 40 30 31
52 54 55 56 56 58 64 70 73 73 71 67 50 36 9 22 21 19 14 10 7 3 6 8 15 16 8 6 9 4 1 2 7 17 5 15 25 14 15 16 20 38 26 29 37 39 20
53 54 54 54 56 60 64 70 74 73 71 68 55 30 6 24 19 12 9 5 5 2 7 7 13 2 14 3 15 8 11 4 9 12 16 11 16 12 32 20 6 20 10 17 22 40 39
54 54 55 54 55 60 64 69 74 76 75 65 40 16 10 27 16 10 9 3 5 4 5 8 8 11 13 16 14 12 4 10 3 9 9 7 12 17 22 15 19 24 15 11 15 14 16
53 53 53 54 56 59 65 68 72 76 76 67 25 11 25 24 11 3 5 5 8 8 9 10 11 15 15 5 10 8 8 4 4 3 2 7 8 17 29 36 26 33 38 27 14 18 17
53 52 52 53 55 58 63 66 67 66 64 60 31 16 16 20 7 2 5 7 7 9 8 6 11 10 7 9 10 11 7 6 6 2 3 11 13 15 13 9 12 17 25 26 17 9 40
52 51 50 51 54 58 62 64 63 57 51 41 14 8 7 15 11 10 12 11 12 6 13 12 10 10 12 15 10 7 12 12 2 6 6 4 17 22 24 17 2 8 13 15 21 15 27
51 49 49 50 54 57 60 61 57 51 43 25 10 6 5 9 1 19 12 9 18 12 8 8 13 23 19 15 16 16 12 12 13 7 7 8 17 19 24 27 27 30 29 26 31 30 30
48 48 47 49 53 56 57 55 50 45 38 13 14 12 9 26 17 15 7 10 12 7 9 10 19 4 15 22 18 8 13 11 10 9 10 7 14 15 27 23 24 34 34 34 36 35 35
47 45 46 49 51 52 50 46 43 40 32 11 13 11 9 11 11 12 9 5 4 9 13 5 7 14 18 8 7 11 14 10 10 14 15 15 12 12 19 6 18 23 26 33 35 32 23
44 44 46 47 47 45 41 40 37 33 26 15 11 9 13 15 9 15 11 15 20 22 22 18 18 18 6 12 14 16 20 23 23 23 21 17 17 17 11 12 10 10 5 5 10 7 16
43 45 46 44 42 39 36 34 31 28 20 12 11 7 10 14 17 25 23 19 19 20 27 30 25 14 16 13 16 17 21 21 29 24 21 26 18 7 7 16 24 19 8 5 7 8 4
45 43 42 39 35 34 32 31 27 25 20 12 13 9 10 17 3 11 17 15 21 21 18 25 16 15 13 18 19 28 19 18 13 17 9 17 20 14 10 8 9 8 9 3 6 15 12
41 36 34 30 31 32 28 26 25 20 18 16 14 13 10 24 27 15 17 14 7 13 14 16 13 15 18 19 22 24 25 14 20 23 16 18 20 23 21 14 13 12 7 2 15 5 5
35 27 28 32 30 27 25 24 21 13 15 17 15 16 12 20 42 42 39 40 36 26 18 4 12 22 16 23 21 15 16 15 22 20 12 20 13 15 18 13 13 11 12 12 12 14 22
29 22 30 35 27 23 23 24 20 18 24 21 16 11 16 21 35 39 43 49 44 36 28 19 20 10 10 9 8 9 10 8 19 15 11 15 11 6 9 4 11 10 5 7 16 20 26
Wind_Direction_850mb
31 30 29 26 24 22 20 17 15 13 10 8 9 7 0 352 347 341 332 321 292 272 271 236 222 229 260 240 200 177 171 173 160 161 169 174 181 193 198 191 194 233 220 233 238 251 267
29 28 25 22 21 20 18 16 14 12 8 4 3 3 359 353 347 343 337 325 296 269 271 245 225 234 256 247 206 177 172 172 176 171 176 179 193 212 179 196 229 169 225 239 241 236 230
25 21 19 18 17 16 15 15 13 11 9 5 360 358 356 351 347 347 349 349 332 277 268 245 235 249 257 267 195 186 176 175 184 182 185 186 181 205 172 186 216 218 245 219 227 228 230
19 17 16 14 13 15 14 12 11 10 8 6 2 355 351 349 344 346 355 0 2 333 291 269 247 269 265 247 204 186 180 187 186 190 190 187 198 224 234 192 206 237 238 247 204 205 205
15 15 13 10 11 12 12 11 9 8 7 3 5 358 351 347 341 343 353 3 9 320 291 270 264 227 257 249 216 207 192 189 183 187 185 181 205 239 200 230 229 210 250 216 162 208 179
12 12 9 8 12 12 12 12 9 7 6 2 2 0 353 347 344 351 4 352 334 326 299 301 247 236 214 166 161 187 193 191 180 179 183 207 220 228 224 232 253 237 233 221 231 175 211
9 9 8 11 14 12 11 13 10 9 7 2 1 0 356 351 355 41 36 18 334 210 260 266 296 267 271 155 205 180 181 176 195 192 207 205 229 228 236 231 315 268 262 249 225 169 229
9 9 12 12 10 9 10 13 11 10 8 3 2 1 359 1 47 74 64 77 62 304 296 289 274 261 251 230 233 185 178 188 194 207 213 192 231 252 255 231 240 235 236 241 237 200 222
7 8 10 10 8 9 11 14 13 11 10 4 3 6 4 21 89 105 82 55 356 323 269 313 299 354 20 211 231 207 189 203 206 217 202 233 222 12 230 216 230 226 244 237 260 180 216
6 7 6 7 8 10 11 14 13 11 11 6 7 12 15 49 50 66 21 334 329 321 265 94 128 81 2 199 208 221 204 202 220 233 227 239 249 224 228 240 227 244 212 243 238 216 210
8 8 7 6 7 9 10 10 11 10 12 9 11 18 23 44 47 15 318 306 308 230 265 74 86 44 320 262 332 145 202 210 239 219 243 222 231 228 234 244 233 246 224 236 234 235 249
7 6 5 6 7 7 8 8 8 7 8 10 8 13 14 15 10 356 349 300 194 233 165 134 69 358 160 39 59 111 199 222 257 252 225 263 278 267 251 266 240 220 221 234 244 246 231
1 1 1 4 7 5 5 5 5 4 2 4 5 358 1 1 350 346 351 279 242 255 119 84 358 341 342 26 57 301 187 196 240 231 235 233 242 229 233 247 206 229 235 236 225 226 237
356 356 358 1 3 4 1 0 0 359 357 357 357 348 345 355 347 349 341 249 252 57 25 33 326 301 303 347 91 123 174 164 61 289 272 267 241 231 204 239 253 223 230 242 249 243 242
351 352 354 357 358 359 358 356 356 357 357 353 350 347 318 351 344 343 303 251 346 351 359 327 301 279 205 200 296 209 153 127 49 23 280 325 248 58 29 303 258 242 242 261 272 269 256
347 347 350 353 354 354 356 354 353 355 357 353 351 346 270 345 338 330 263 303 273 311 313 262 274 236 272 257 280 256 193 118 135 91 36 49 284 28 2 287 230 272 346 223 228 252 250
344 344 345 349 350 350 352 353 351 351 353 355 358 333 271 338 339 249 272 351 280 249 292 263 276 262 271 290 282 281 344 105 271 275 301 124 137 255 331 341 9 324 258 265 297 261 270
339 341 342 344 346 348 350 351 351 350 351 359 359 319 312 347 271 285 276 352 347 272 233 252 272 271 267 266 264 254 251 357 27 307 2 186 202 242 250 243 288 303 295 306 289 250 265
336 338 339 341 343 345 346 348 351 352 355 356 335 298 326 5 312 299 338 273 262 267 251 245 239 242 225 237 251 244 203 125 81 35 168 156 210 268 181 197 206 222 235 254 267 309 277
333 334 336 337 339 340 342 344 347 351 354 355 335 307 342 36 55 342 335 280 261 235 261 262 267 232 223 232 214 233 215 176 238 134 94 172 251 263 279 310 24 243 215 205 215 240 253
329 330 331 333 335 336 338 340 343 349 355 4 348 36 337 311 165 326 283 285 276 268 235 253 223 236 232 238 229 223 211 189 199 161 206 243 254 262 272 285 280 269 269 253 237 253 263
325 327 328 330 331 332 333 336 342 348 355 9 341 334 311 285 290 277 211 245 275 286 263 218 259 251 240 242 238 214 212 217 257 160 210 203 265 286 274 267 271 271 266 261 257 256 258
322 324 326 327 328 330 332 336 341 346 358 6 341 315 297 279 271 268 274 294 271 304 230 248 328 277 238 248 290 289 273 277 267 249 221 235 261 259 275 346 291 268 258 247 252 250 257
319 321 323 324 325 326 330 333 338 345 354 360 329 320 283 284 269 292 288 276 275 273 270 269 292 270 15 318 276 254 251 248 239 238 242 241 245 257 276 290 256 59 38 304 285 285 239
316 317 318 320 322 324 327 329 334 337 344 345 322 315 293 284 303 285 271 275 274 256 253 261 261 263 304 277 250 242 235 241 239 235 219 227 234 209 233 235 273 286 151 279 272 141 16
312 315 315 319 321 322 322 323 327 328 334 342 305 281 279 298 18 333 287 287 288 280 269 250 246 263 255 254 232 241 238 222 177 174 203 195 231 221 198 246 252 60 106 46 292 256 94
309 313 315 315 317 317 319 319 319 322 325 337 295 295 277 278 279 288 270 309 288 280 280 281 272 252 224 234 236 234 239 220 241 213 179 188 205 216 211 233 255 101 137 286 247 44 360
307 312 317 315 313 308 317 320 319 311 292 324 293 298 268 272 280 278 271 269 268 255 260 354 269 206 233 234 240 243 248 223 242 246 226 224 217 219 235 235 242 144 144 247 16 319 321
304 298 317 344 324 303 306 315 322 288 286 296 276 270 274 268 264 281 272 263 254 251 275 268 285 312 319 254 234 235 215 214 239 242 195 243 245 242 222 34 95 115 331 311 304 302 307